Voltar ao catálogo

NOAA 16 DEB

AtivoPO
NORAD 41304·DEBRIS·🇺🇸 United States

Lançado Sep 21, 2000 de Vandenberg Space Force Base

Loading…

Próximas Passagens (próximas 24 horas)

TLE

AtualizadoSource: Space-Track

Época: Sep 12, 2026, 22:17 UTC

1 41304U 00055HG  26255.92872679  .00003925  00000-0  13147-2 0  9999
2 41304  99.0840  68.1637 0031182  18.1649 342.0642 14.37661101553104

Acompanhe NOAA 16 DEB em tempo real com AllMySat

Download on the App Store